Location: Marcé
(47.5801°N, 0.3280°W)
Time: 08:48:05
(UTC+01:00)

Tiros 1 despin weight - Pass Details

Date: 09 December 2021
Orbit: 592 x 641 km, 48.2° (Epoch: 25 January)

Event Time Altitude Azimuth Distance (km) Brightness Sun altitude
Rises 14:19:21 0° 265° (W) 2,842 ? 17.0°
Reaches altitude 10° 14:21:39 10° 266° (W) 1,934 ? 16.8°
Maximum altitude 14:26:06 84° 353° (N) 602 ? 16.6°
Drops below altitude 10° 14:30:31 10° 84° (E) 1,923 ? 16.3°
Sets 14:32:47 0° 85° (E) 2,824 ? 16.1°
